📊 Raw Sensor Data
Showing records 43201 to 43225 of 85,013 total
| ID | Distance (ft) | Battery V | Battery A | Int Temp (°F) | Int Humid (%) | Ext Temp (°F) | Solar V | RSSI | SNR | Time Stamp |
|---|---|---|---|---|---|---|---|---|---|---|
| 41825 | 15.7 | 3.95 | 27 | 94 | 50 | 86 | 4.50 | -75 | 8 | 05/27/2025 06:45 PM |
| 41824 | 15.7 | 3.89 | 0 | 96 | 49 | 87 | 5.10 | -75 | 7 | 05/27/2025 06:30 PM |
| 41823 | 15.7 | 3.89 | 0 | 97 | 48 | 88 | 5.10 | -75 | 8 | 05/27/2025 06:00 PM |
| 41822 | 15.7 | 3.88 | 0 | 97 | 48 | 88 | 5.10 | -74 | 7 | 05/27/2025 05:45 PM |
| 41821 | 15.7 | 3.88 | 0 | 97 | 48 | 87 | 5.10 | -74 | 7 | 05/27/2025 05:30 PM |
| 41820 | 15.7 | 3.89 | 0 | 98 | 47 | 91 | 5.10 | -74 | 8 | 05/27/2025 05:15 PM |
| 41819 | 15.7 | 3.89 | 0 | 99 | 47 | 87 | 5.10 | -73 | 7 | 05/27/2025 05:00 PM |
| 41818 | 15.7 | 3.88 | 0 | 98 | 47 | 88 | 5.10 | -74 | 7 | 05/27/2025 04:30 PM |
| 41817 | 15.7 | 3.88 | 0 | 100 | 46 | 89 | 5.10 | -75 | 8 | 05/27/2025 04:15 PM |
| 41816 | 15.7 | 3.91 | 0 | 102 | 44 | 93 | 5.10 | -75 | 7 | 05/27/2025 04:00 PM |
| 41815 | 15.7 | 3.89 | 0 | 102 | 43 | 89 | 5.10 | -74 | 7 | 05/27/2025 03:45 PM |
| 41814 | 15.7 | 3.89 | 0 | 102 | 43 | 94 | 5.10 | -74 | 8 | 05/27/2025 03:30 PM |
| 41813 | 15.7 | 3.89 | 0 | 100 | 43 | 95 | 5.10 | -73 | 7 | 05/27/2025 03:15 PM |
| 41812 | 15.7 | 3.89 | 0 | 99 | 42 | 86 | 5.10 | -74 | 7 | 05/27/2025 03:00 PM |
| 41811 | 15.7 | 3.89 | 0 | 99 | 42 | 92 | 5.10 | -75 | 8 | 05/27/2025 02:45 PM |
| 41810 | 15.7 | 3.89 | 0 | 99 | 41 | 92 | 5.10 | -75 | 7 | 05/27/2025 02:30 PM |
| 41809 | 15.7 | 3.89 | 0 | 97 | 41 | 91 | 5.10 | -74 | 7 | 05/27/2025 02:15 PM |
| 41808 | 15.7 | 3.89 | 0 | 96 | 41 | 86 | 5.10 | -73 | 7 | 05/27/2025 02:00 PM |
| 41807 | 15.7 | 3.89 | 0 | 95 | 41 | 87 | 5.10 | -74 | 7 | 05/27/2025 01:45 PM |
| 41806 | 15.7 | 4.07 | 0 | 93 | 41 | 87 | 5.10 | -74 | 7 | 05/27/2025 01:30 PM |
| 41805 | 15.7 | 3.88 | 0 | 91 | 42 | 86 | 5.10 | -75 | 7 | 05/27/2025 01:15 PM |
| 41804 | 15.7 | 3.88 | 0 | 90 | 42 | 84 | 5.10 | -74 | 8 | 05/27/2025 01:00 PM |
| 41803 | 15.7 | 3.99 | 0 | 89 | 42 | 82 | 5.10 | -74 | 8 | 05/27/2025 12:45 PM |
| 41802 | 15.8 | 3.89 | 0 | 88 | 42 | 82 | 5.10 | -73 | 8 | 05/27/2025 12:30 PM |
| 41801 | 15.7 | 4.10 | 0 | 86 | 42 | 85 | 5.10 | -75 | 9 | 05/27/2025 12:15 PM |